Terminal Aerodrome Forecast
Issued by NWS Des Moines, IA

Home | Current Version | Previous Version | Text Only | Print | Product List | Glossary On
Versions: 1 2 3 4 5 6 7 8 9 10 11 12 13 14 15 16 17 18 19 20 21 22 23 24 25 26 27 28 29 30 31 32 33 34 35 36 37 38 39 40 41 42 43 44 45 46
000
FTUS43 KDMX 280530
TAFDSM
TAF
KDSM 280530Z 2806/2906 24006KT P6SM FEW200
     FM281900 VRB05KT P6SM FEW014 SCT120
     FM282200 03006KT P6SM SCT016 BKN050=

USA.gov is the U.S. government's official web portal to all federal, state and local government web resources and services.